Weather Roundup
Issued by NWS Chicago, IL

Home | Current Version | Previous Version | Text Only | Print | Product List | Glossary Off
Versions: 1 2 3 4 5 6 7 8 9 10 11 12 13 14 15 16 17 18 19 20 21 22 23 24 25 26 27 28 29 30 31 32 33 34 35 36 37 38 39 40 41 42 43 44 45 46 47 48 49 50

000
NZUS59 KLOT 281106
HRRLOT

CHICAGO AREA WEATHER ROUNDUP
NATIONAL WEATHER SERVICE CHICAGO/ROMEOVILLE IL
500 AM CST WED JAN 28 2015

NOTE: "FAIR" INDICATES FEW OR NO CLOUDS BELOW 12,000 FEET WITH NO
SIGNIFICANT WEATHER AND/OR OBSTRUCTIONS TO VISIBILITY.

* THESE STATIONS ARE NOT UNDER NWS QUALITY CONTROL. THEY ALSO MAY NOT
  REPORT WEATHER SUCH AS PRECIPITATION OR FOG.

ILZ005-006-012>014-019>023-281200-
NORTHEAST ILLINOIS

CITY           SKY/WX    TMP DP  RH WIND       PRES   REMARKS
OHARE          PTCLDY    22  18  85 SE3       30.25F
MIDWAY         PTCLDY    24  18  77 SE7       30.27F WCI  16
AURORA         PTCLDY    20  15  81 SE5       30.26R WCI  13
LANSING*       PTCLDY    17  15  91 CALM      30.28F
JOLIET*        PTCLDY    22  18  84 CALM      30.27S
WAUKEGAN       PTCLDY    18  15  88 CALM      30.25F
DUPAGE AIRPORT PTCLDY    20  16  84 S3        30.25S
WHEELING       MOCLDY    21  17  84 E3        30.27F
KANKAKEE*      MOCLDY    20  18  91 E5        30.28S WCI  14
MORRIS*        PTCLDY    21  19  89 SE5       30.26R WCI  15
LEWIS AIRPORT* PTCLDY    21  18  86 SE6       30.27R WCI  13
NORTHERLY IS     N/A     24  16  71 S6          N/A  WCI  17
$$

WIZ051-052-058>065-066-070>072-281200-
SOUTHEAST WISCONSIN

CITY           SKY/WX    TMP DP  RH WIND       PRES   REMARKS
MILWAUKEE      PTCLDY    22  15  75 CALM      30.25F
KENOSHA*       PTCLDY    20  17  88 CALM      30.25S
RACINE*        PTCLDY    20  16  84 CALM      30.27S
BURLINGTON     MOCLDY    19  17  93 CALM      30.24F
$$

INZ001>003-010>013-019-020-281200-
NORTHWEST INDIANA

CITY           SKY/WX    TMP DP  RH WIND       PRES   REMARKS
GARY*          PTCLDY    19  14  79 SE6       30.30F WCI  11
MICHIGAN CITY* NOT AVBL
RENSSELAER*    NOT AVBL
VALPARAISO     PTCLDY    15  12  88 E3        30.29S
$$

LMZ740>746-281200-
SOUTHERN LAKE MICHIGAN

STATION/POSITION TIME  SKY/WX   TEMP WIND        PRES    VSBY
                                AIR  DIR/SP/G
                 (UTC)          (F)  (DEG/KT/KT) (MB)    (MI)
HARRISON CRIB    1100            26  170/ 14/ 16   N/A
BURNHAM HARBOR   1100            24  170/  3/  7   N/A
CALUMET HARBOR   1000            23  160/  5/  6   N/A
BURNS HARBOR     NOT AVBL
MICHIGAN CITY    1100            21  120/  7/  8   N/A
$$

ABBREVIATIONS USED IN REMARKS
   TC - TEMPERATURE IN CELSIUS
  WCI - WIND CHILL INDEX
   HX - HEAT INDEX
  VSB - VISIBILITY
$$



USA.gov is the U.S. government's official web portal to all federal, state and local government web resources and services.